{"data":{"norad_id":64128,"epoch":"2026-09-20T23:29:19.602240Z","epoch_age_seconds":99066,"freshness":"FRESH","line1":"1 64128U 25111F   26263.97869910  .00181643  00000+0  13852-2 0  9992","line2":"2 64128  42.9995 236.6545 0001650 236.1291 123.9419 15.70894889 77303","mean_motion":15.70894889,"eccentricity":0.000165,"inclination_deg":42.9995,"raan_deg":236.6545,"arg_perigee_deg":236.1291,"mean_anomaly_deg":123.9419,"bstar":0.0013852,"rev_number":7730,"period_min":91.667495392812,"perigee_km":355.22699469679,"apogee_km":357.44937150721,"semimajor_km":6734.475183102,"source":"CELESTRAK","updated_at":"2026-09-21T09:00:35.233355Z"}}